Location: Eastlake (historical)
(39.0077°N, 122.6678°W)
Time: 04:10:31
(UTC+00:00)

FENGYUN 3A - Pass Details

Date: 25 November 2020
Orbit: 823 x 837 km, 98.4° (Epoch: 24 January)

Event Time Altitude Azimuth Distance (km) Brightness Sun altitude
Rises 12:52:37 0° 10° (N) 3,389 6.9 -25.4°
Reaches altitude 10° 12:54:59 10° 9° (N) 2,449 6.1 -24.9°
Maximum altitude 13:00:24 74° 285° (WNW) 865 3.5 -23.9°
Drops below altitude 10° 13:05:45 10° 202° (SSW) 2,424 6.0 -22.8°
Sets 13:08:06 0° 200° (SSW) 3,351 6.7 -22.4°
